owner,sensor,date,latitude,longitude,vertical_datum,sea_water_temperature,qcFlag 
COMPS,ioos:station:USF.COMPS:C10:1,2017-03-01T00:05:00Z,27.1690,-82.9260,-1.0,21.14,2 
COMPS,ioos:station:USF.COMPS:C10:1,2017-03-01T00:35:00Z,27.1690,-82.9260,-1.0,21.1,2 
COMPS,ioos:station:USF.COMPS:C10:1,2017-03-01T01:05:00Z,27.1690,-82.9260,-1.0,21.05,2 
COMPS,ioos:station:USF.COMPS:C10:1,2017-03-01T01:35:00Z,27.1690,-82.9260,-1.0,21.06,2 
COMPS,ioos:station:USF.COMPS:C10:1,2017-03-01T02:05:00Z,27.1690,-82.9260,-1.0,21.02,2 
COMPS,ioos:station:USF.COMPS:C10:1,2017-03-01T02:35:00Z,27.1690,-82.9260,-1.0,21.02,2 
COMPS,ioos:station:USF.COMPS:C10:1,2017-03-01T03:05:00Z,27.1690,-82.9260,-1.0,20.97,2 
COMPS,ioos:station:USF.COMPS:C10:1,2017-03-01T03:35:00Z,27.1690,-82.9260,-1.0,20.93,2 
COMPS,ioos:station:USF.COMPS:C10:1,2017-03-01T04:05:00Z,27.1690,-82.9260,-1.0,20.97,2 
COMPS,ioos:station:USF.COMPS:C10:1,2017-03-01T04:35:00Z,27.1690,-82.9260,-1.0,20.94,2 
COMPS,ioos:station:USF.COMPS:C10:1,2017-03-01T05:05:00Z,27.1690,-82.9260,-1.0,20.95,2 
COMPS,ioos:station:USF.COMPS:C10:1,2017-03-01T05:35:00Z,27.1690,-82.9260,-1.0,20.96,2 
COMPS,ioos:station:USF.COMPS:C10:1,2017-03-01T06:05:00Z,27.1690,-82.9260,-1.0,20.97,2 
COMPS,ioos:station:USF.COMPS:C10:1,2017-03-01T06:35:00Z,27.1690,-82.9260,-1.0,20.97,2 
COMPS,ioos:station:USF.COMPS:C10:1,2017-03-01T09:05:00Z,27.1690,-82.9260,-1.0,20.99,2 
COMPS,ioos:station:USF.COMPS:C10:1,2017-03-01T09:35:00Z,27.1690,-82.9260,-1.0,20.99,2 
COMPS,ioos:station:USF.COMPS:C10:1,2017-03-01T10:05:00Z,27.1690,-82.9260,-1.0,20.99,2 
COMPS,ioos:station:USF.COMPS:C10:1,2017-03-01T10:35:00Z,27.1690,-82.9260,-1.0,20.97,2 
COMPS,ioos:station:USF.COMPS:C10:1,2017-03-01T11:05:00Z,27.1690,-82.9260,-1.0,20.95,2 
COMPS,ioos:station:USF.COMPS:C10:1,2017-03-01T11:35:00Z,27.1690,-82.9260,-1.0,20.93,2 
COMPS,ioos:station:USF.COMPS:C10:1,2017-03-01T12:05:00Z,27.1690,-82.9260,-1.0,20.93,2 
COMPS,ioos:station:USF.COMPS:C10:1,2017-03-01T12:35:00Z,27.1690,-82.9260,-1.0,20.91,2 
COMPS,ioos:station:USF.COMPS:C10:1,2017-03-01T13:05:00Z,27.1690,-82.9260,-1.0,20.89,2 
COMPS,ioos:station:USF.COMPS:C10:1,2017-03-01T13:35:00Z,27.1690,-82.9260,-1.0,20.9,2 
COMPS,ioos:station:USF.COMPS:C10:1,2017-03-01T16:05:00Z,27.1690,-82.9260,-1.0,21.07,2 
COMPS,ioos:station:USF.COMPS:C10:1,2017-03-01T16:35:00Z,27.1690,-82.9260,-1.0,21.11,2 
COMPS,ioos:station:USF.COMPS:C10:1,2017-03-01T17:05:00Z,27.1690,-82.9260,-1.0,21.21,2 
COMPS,ioos:station:USF.COMPS:C10:1,2017-03-01T17:35:00Z,27.1690,-82.9260,-1.0,21.29,2 
COMPS,ioos:station:USF.COMPS:C10:1,2017-03-01T18:05:00Z,27.1690,-82.9260,-1.0,21.42,2 
COMPS,ioos:station:USF.COMPS:C10:1,2017-03-01T18:35:00Z,27.1690,-82.9260,-1.0,21.71,2 
COMPS,ioos:station:USF.COMPS:C10:1,2017-03-01T19:05:00Z,27.1690,-82.9260,-1.0,21.75,2 
COMPS,ioos:station:USF.COMPS:C10:1,2017-03-01T19:35:00Z,27.1690,-82.9260,-1.0,21.59,2 
COMPS,ioos:station:USF.COMPS:C10:1,2017-03-01T20:05:00Z,27.1690,-82.9260,-1.0,21.69,2 
COMPS,ioos:station:USF.COMPS:C10:1,2017-03-01T20:35:00Z,27.1690,-82.9260,-1.0,21.81,2 
COMPS,ioos:station:USF.COMPS:C10:1,2017-03-01T21:05:00Z,27.1690,-82.9260,-1.0,21.82,2 
COMPS,ioos:station:USF.COMPS:C10:1,2017-03-01T21:35:00Z,27.1690,-82.9260,-1.0,21.85,2 
COMPS,ioos:station:USF.COMPS:C10:1,2017-03-01T22:05:00Z,27.1690,-82.9260,-1.0,22.04,2 
COMPS,ioos:station:USF.COMPS:C10:1,2017-03-01T22:35:00Z,27.1690,-82.9260,-1.0,22.15,2 
COMPS,ioos:station:USF.COMPS:C10:1,2017-03-01T23:05:00Z,27.1690,-82.9260,-1.0,22.15,2 
COMPS,ioos:station:USF.COMPS:C10:1,2017-03-01T23:35:00Z,27.1690,-82.9260,-1.0,21.91,2 
COMPS,ioos:station:USF.COMPS:C10:1,2017-03-02T00:05:00Z,27.1690,-82.9260,-1.0,21.94,2 
COMPS,ioos:station:USF.COMPS:C10:1,2017-03-02T00:35:00Z,27.1690,-82.9260,-1.0,21.93,2 
COMPS,ioos:station:USF.COMPS:C10:1,2017-03-02T01:05:00Z,27.1690,-82.9260,-1.0,21.78,2 
COMPS,ioos:station:USF.COMPS:C10:1,2017-03-02T01:35:00Z,27.1690,-82.9260,-1.0,21.78,2 
COMPS,ioos:station:USF.COMPS:C10:1,2017-03-02T02:05:00Z,27.1690,-82.9260,-1.0,21.72,2 
COMPS,ioos:station:USF.COMPS:C10:1,2017-03-02T02:35:00Z,27.1690,-82.9260,-1.0,21.65,2 
COMPS,ioos:station:USF.COMPS:C10:1,2017-03-02T03:05:00Z,27.1690,-82.9260,-1.0,21.56,2 
COMPS,ioos:station:USF.COMPS:C10:1,2017-03-02T03:35:00Z,27.1690,-82.9260,-1.0,21.52,2 
COMPS,ioos:station:USF.COMPS:C10:1,2017-03-02T04:05:00Z,27.1690,-82.9260,-1.0,21.44,2 
COMPS,ioos:station:USF.COMPS:C10:1,2017-03-02T04:35:00Z,27.1690,-82.9260,-1.0,21.4,2 
COMPS,ioos:station:USF.COMPS:C10:1,2017-03-02T05:05:00Z,27.1690,-82.9260,-1.0,21.28,2 
COMPS,ioos:station:USF.COMPS:C10:1,2017-03-02T05:35:00Z,27.1690,-82.9260,-1.0,21.27,2 
COMPS,ioos:station:USF.COMPS:C10:1,2017-03-02T06:05:00Z,27.1690,-82.9260,-1.0,21.25,2 
COMPS,ioos:station:USF.COMPS:C10:1,2017-03-02T06:35:00Z,27.1690,-82.9260,-1.0,21.23,2 
COMPS,ioos:station:USF.COMPS:C10:1,2017-03-02T07:05:00Z,27.1690,-82.9260,-1.0,21.2,2 
COMPS,ioos:station:USF.COMPS:C10:1,2017-03-02T07:35:00Z,27.1690,-82.9260,-1.0,21.19,2 
COMPS,ioos:station:USF.COMPS:C10:1,2017-03-02T08:05:00Z,27.1690,-82.9260,-1.0,21.17,2 
COMPS,ioos:station:USF.COMPS:C10:1,2017-03-02T08:35:00Z,27.1690,-82.9260,-1.0,21.14,2 
COMPS,ioos:station:USF.COMPS:C10:1,2017-03-02T09:05:00Z,27.1690,-82.9260,-1.0,21.34,2 
COMPS,ioos:station:USF.COMPS:C10:1,2017-03-02T09:35:00Z,27.1690,-82.9260,-1.0,21.33,2 
COMPS,ioos:station:USF.COMPS:C10:1,2017-03-02T10:05:00Z,27.1690,-82.9260,-1.0,21.34,2 
COMPS,ioos:station:USF.COMPS:C10:1,2017-03-02T10:35:00Z,27.1690,-82.9260,-1.0,21.28,2 
COMPS,ioos:station:USF.COMPS:C10:1,2017-03-02T11:05:00Z,27.1690,-82.9260,-1.0,21.27,2 
COMPS,ioos:station:USF.COMPS:C10:1,2017-03-02T11:35:00Z,27.1690,-82.9260,-1.0,21.26,2 
COMPS,ioos:station:USF.COMPS:C10:1,2017-03-02T12:05:00Z,27.1690,-82.9260,-1.0,21.3,2 
COMPS,ioos:station:USF.COMPS:C10:1,2017-03-02T12:35:00Z,27.1690,-82.9260,-1.0,21.28,2 
COMPS,ioos:station:USF.COMPS:C10:1,2017-03-02T13:05:00Z,27.1690,-82.9260,-1.0,21.26,2 
COMPS,ioos:station:USF.COMPS:C10:1,2017-03-02T13:35:00Z,27.1690,-82.9260,-1.0,21.33,2 
COMPS,ioos:station:USF.COMPS:C10:1,2017-03-02T14:05:00Z,27.1690,-82.9260,-1.0,21.36,2 
COMPS,ioos:station:USF.COMPS:C10:1,2017-03-02T14:35:00Z,27.1690,-82.9260,-1.0,21.39,2 
COMPS,ioos:station:USF.COMPS:C10:1,2017-03-02T15:05:00Z,27.1690,-82.9260,-1.0,21.36,2 
COMPS,ioos:station:USF.COMPS:C10:1,2017-03-02T15:35:00Z,27.1690,-82.9260,-1.0,21.46,2 
COMPS,ioos:station:USF.COMPS:C10:1,2017-03-02T16:05:00Z,27.1690,-82.9260,-1.0,21.44,2 
COMPS,ioos:station:USF.COMPS:C10:1,2017-03-02T16:35:00Z,27.1690,-82.9260,-1.0,21.54,2 
COMPS,ioos:station:USF.COMPS:C10:1,2017-03-02T17:05:00Z,27.1690,-82.9260,-1.0,21.49,2 
COMPS,ioos:station:USF.COMPS:C10:1,2017-03-02T17:35:00Z,27.1690,-82.9260,-1.0,21.51,2 
COMPS,ioos:station:USF.COMPS:C10:1,2017-03-02T18:05:00Z,27.1690,-82.9260,-1.0,21.64,2 
COMPS,ioos:station:USF.COMPS:C10:1,2017-03-02T18:35:00Z,27.1690,-82.9260,-1.0,21.55,2 
COMPS,ioos:station:USF.COMPS:C10:1,2017-03-02T19:05:00Z,27.1690,-82.9260,-1.0,22.39,2 
COMPS,ioos:station:USF.COMPS:C10:1,2017-03-02T19:35:00Z,27.1690,-82.9260,-1.0,22.19,2 
COMPS,ioos:station:USF.COMPS:C10:1,2017-03-02T20:05:00Z,27.1690,-82.9260,-1.0,22.23,2 
COMPS,ioos:station:USF.COMPS:C10:1,2017-03-02T20:35:00Z,27.1690,-82.9260,-1.0,22.33,2 
COMPS,ioos:station:USF.COMPS:C10:1,2017-03-02T21:05:00Z,27.1690,-82.9260,-1.0,22.54,2 
COMPS,ioos:station:USF.COMPS:C10:1,2017-03-02T21:35:00Z,27.1690,-82.9260,-1.0,22.46,2 
COMPS,ioos:station:USF.COMPS:C10:1,2017-03-02T22:05:00Z,27.1690,-82.9260,-1.0,22.4,2 
COMPS,ioos:station:USF.COMPS:C10:1,2017-03-02T22:35:00Z,27.1690,-82.9260,-1.0,22.29,2 
COMPS,ioos:station:USF.COMPS:C10:1,2017-03-02T23:05:00Z,27.1690,-82.9260,-1.0,22.35,2 
COMPS,ioos:station:USF.COMPS:C10:1,2017-03-02T23:35:00Z,27.1690,-82.9260,-1.0,22.27,2 
COMPS,ioos:station:USF.COMPS:C10:1,2017-03-03T00:05:00Z,27.1690,-82.9260,-1.0,22.19,2 
COMPS,ioos:station:USF.COMPS:C10:1,2017-03-03T00:35:00Z,27.1690,-82.9260,-1.0,21.76,2 
COMPS,ioos:station:USF.COMPS:C10:1,2017-03-03T01:05:00Z,27.1690,-82.9260,-1.0,21.59,2 
COMPS,ioos:station:USF.COMPS:C10:1,2017-03-03T01:35:00Z,27.1690,-82.9260,-1.0,21.48,2 
COMPS,ioos:station:USF.COMPS:C10:1,2017-03-03T02:05:00Z,27.1690,-82.9260,-1.0,21.41,2 
COMPS,ioos:station:USF.COMPS:C10:1,2017-03-03T02:35:00Z,27.1690,-82.9260,-1.0,21.33,2 
COMPS,ioos:station:USF.COMPS:C10:1,2017-03-03T03:05:00Z,27.1690,-82.9260,-1.0,21.31,2 
COMPS,ioos:station:USF.COMPS:C10:1,2017-03-03T03:35:00Z,27.1690,-82.9260,-1.0,21.27,2 
COMPS,ioos:station:USF.COMPS:C10:1,2017-03-03T04:05:00Z,27.1690,-82.9260,-1.0,21.23,2 
COMPS,ioos:station:USF.COMPS:C10:1,2017-03-03T04:35:00Z,27.1690,-82.9260,-1.0,21.18,2 
COMPS,ioos:station:USF.COMPS:C10:1,2017-03-03T05:05:00Z,27.1690,-82.9260,-1.0,21.15,2 
COMPS,ioos:station:USF.COMPS:C10:1,2017-03-03T05:35:00Z,27.1690,-82.9260,-1.0,21.14,2 
COMPS,ioos:station:USF.COMPS:C10:1,2017-03-03T06:05:00Z,27.1690,-82.9260,-1.0,21.1,2 
COMPS,ioos:station:USF.COMPS:C10:1,2017-03-03T06:35:00Z,27.1690,-82.9260,-1.0,21.09,2 
COMPS,ioos:station:USF.COMPS:C10:1,2017-03-03T14:05:00Z,27.1690,-82.9260,-1.0,20.78,2 
COMPS,ioos:station:USF.COMPS:C10:1,2017-03-03T14:35:00Z,27.1690,-82.9260,-1.0,20.76,2 
COMPS,ioos:station:USF.COMPS:C10:1,2017-03-03T15:05:00Z,27.1690,-82.9260,-1.0,20.76,2 
COMPS,ioos:station:USF.COMPS:C10:1,2017-03-03T15:35:00Z,27.1690,-82.9260,-1.0,20.75,2 
COMPS,ioos:station:USF.COMPS:C10:1,2017-03-03T16:05:00Z,27.1690,-82.9260,-1.0,20.75,2 
COMPS,ioos:station:USF.COMPS:C10:1,2017-03-03T16:35:00Z,27.1690,-82.9260,-1.0,20.76,2 
COMPS,ioos:station:USF.COMPS:C10:1,2017-03-03T19:05:00Z,27.1690,-82.9260,-1.0,20.82,2 
COMPS,ioos:station:USF.COMPS:C10:1,2017-03-03T19:35:00Z,27.1690,-82.9260,-1.0,20.81,2 
COMPS,ioos:station:USF.COMPS:C10:1,2017-03-03T20:05:00Z,27.1690,-82.9260,-1.0,20.84,2 
COMPS,ioos:station:USF.COMPS:C10:1,2017-03-03T20:35:00Z,27.1690,-82.9260,-1.0,20.83,2 
COMPS,ioos:station:USF.COMPS:C10:1,2017-03-04T10:05:00Z,27.1690,-82.9260,-1.0,20.48,2 
COMPS,ioos:station:USF.COMPS:C10:1,2017-03-04T10:35:00Z,27.1690,-82.9260,-1.0,20.46,2 
COMPS,ioos:station:USF.COMPS:C10:1,2017-03-04T13:05:00Z,27.1690,-82.9260,-1.0,20.41,2 
COMPS,ioos:station:USF.COMPS:C10:1,2017-03-04T13:35:00Z,27.1690,-82.9260,-1.0,20.39,2 
COMPS,ioos:station:USF.COMPS:C10:1,2017-03-04T14:05:00Z,27.1690,-82.9260,-1.0,20.39,2 
COMPS,ioos:station:USF.COMPS:C10:1,2017-03-04T14:35:00Z,27.1690,-82.9260,-1.0,20.4,2 
COMPS,ioos:station:USF.COMPS:C10:1,2017-03-04T23:05:00Z,27.1690,-82.9260,-1.0,20.56,2 
COMPS,ioos:station:USF.COMPS:C10:1,2017-03-04T23:35:00Z,27.1690,-82.9260,-1.0,20.52,2 
COMPS,ioos:station:USF.COMPS:C10:1,2017-03-05T11:05:00Z,27.1690,-82.9260,-1.0,20.34,2 
COMPS,ioos:station:USF.COMPS:C10:1,2017-03-05T11:35:00Z,27.1690,-82.9260,-1.0,20.34,2 
COMPS,ioos:station:USF.COMPS:C10:1,2017-03-05T13:05:00Z,27.1690,-82.9260,-1.0,20.33,2 
COMPS,ioos:station:USF.COMPS:C10:1,2017-03-05T13:35:00Z,27.1690,-82.9260,-1.0,20.33,2 
COMPS,ioos:station:USF.COMPS:C10:1,2017-03-05T17:05:00Z,27.1690,-82.9260,-1.0,20.34,2 
COMPS,ioos:station:USF.COMPS:C10:1,2017-03-05T17:35:00Z,27.1690,-82.9260,-1.0,20.36,2 
COMPS,ioos:station:USF.COMPS:C10:1,2017-03-05T19:05:00Z,27.1690,-82.9260,-1.0,20.41,2 
COMPS,ioos:station:USF.COMPS:C10:1,2017-03-05T19:35:00Z,27.1690,-82.9260,-1.0,20.41,2 
COMPS,ioos:station:USF.COMPS:C10:1,2017-03-05T20:05:00Z,27.1690,-82.9260,-1.0,20.42,2 
COMPS,ioos:station:USF.COMPS:C10:1,2017-03-05T20:35:00Z,27.1690,-82.9260,-1.0,20.43,2 
COMPS,ioos:station:USF.COMPS:C10:1,2017-03-05T22:05:00Z,27.1690,-82.9260,-1.0,20.38,2 
COMPS,ioos:station:USF.COMPS:C10:1,2017-03-05T22:35:00Z,27.1690,-82.9260,-1.0,20.35,2 
COMPS,ioos:station:USF.COMPS:C10:1,2017-03-06T02:05:00Z,27.1690,-82.9260,-1.0,20.25,2 
COMPS,ioos:station:USF.COMPS:C10:1,2017-03-06T02:35:00Z,27.1690,-82.9260,-1.0,20.24,2 
COMPS,ioos:station:USF.COMPS:C10:1,2017-03-06T03:05:00Z,27.1690,-82.9260,-1.0,20.22,2 
COMPS,ioos:station:USF.COMPS:C10:1,2017-03-06T03:35:00Z,27.1690,-82.9260,-1.0,20.22,2 
COMPS,ioos:station:USF.COMPS:C10:1,2017-03-06T05:05:00Z,27.1690,-82.9260,-1.0,20.21,2 
COMPS,ioos:station:USF.COMPS:C10:1,2017-03-06T05:35:00Z,27.1690,-82.9260,-1.0,20.2,2 
COMPS,ioos:station:USF.COMPS:C10:1,2017-03-06T06:05:00Z,27.1690,-82.9260,-1.0,20.21,2 
COMPS,ioos:station:USF.COMPS:C10:1,2017-03-06T06:35:00Z,27.1690,-82.9260,-1.0,20.2,2 
COMPS,ioos:station:USF.COMPS:C10:1,2017-03-06T08:05:00Z,27.1690,-82.9260,-1.0,20.18,2 
COMPS,ioos:station:USF.COMPS:C10:1,2017-03-06T08:35:00Z,27.1690,-82.9260,-1.0,20.17,2 
COMPS,ioos:station:USF.COMPS:C10:1,2017-03-06T10:05:00Z,27.1690,-82.9260,-1.0,20.16,2 
COMPS,ioos:station:USF.COMPS:C10:1,2017-03-06T10:35:00Z,27.1690,-82.9260,-1.0,20.15,2 
COMPS,ioos:station:USF.COMPS:C10:1,2017-03-06T12:05:00Z,27.1690,-82.9260,-1.0,20.13,2 
COMPS,ioos:station:USF.COMPS:C10:1,2017-03-06T12:35:00Z,27.1690,-82.9260,-1.0,20.13,2 
COMPS,ioos:station:USF.COMPS:C10:1,2017-03-06T15:05:00Z,27.1690,-82.9260,-1.0,20.13,2 
COMPS,ioos:station:USF.COMPS:C10:1,2017-03-06T15:35:00Z,27.1690,-82.9260,-1.0,20.13,2 
COMPS,ioos:station:USF.COMPS:C10:1,2017-03-06T16:05:00Z,27.1690,-82.9260,-1.0,20.15,2 
COMPS,ioos:station:USF.COMPS:C10:1,2017-03-06T16:35:00Z,27.1690,-82.9260,-1.0,20.16,2 
COMPS,ioos:station:USF.COMPS:C10:1,2017-03-06T18:05:00Z,27.1690,-82.9260,-1.0,20.21,2 
COMPS,ioos:station:USF.COMPS:C10:1,2017-03-06T18:35:00Z,27.1690,-82.9260,-1.0,20.25,2 
COMPS,ioos:station:USF.COMPS:C10:1,2017-03-06T19:05:00Z,27.1690,-82.9260,-1.0,20.33,2 
COMPS,ioos:station:USF.COMPS:C10:1,2017-03-06T19:35:00Z,27.1690,-82.9260,-1.0,20.37,2 
COMPS,ioos:station:USF.COMPS:C10:1,2017-03-06T20:05:00Z,27.1690,-82.9260,-1.0,20.47,2 
COMPS,ioos:station:USF.COMPS:C10:1,2017-03-06T20:35:00Z,27.1690,-82.9260,-1.0,20.54,2 
COMPS,ioos:station:USF.COMPS:C10:1,2017-03-06T22:05:00Z,27.1690,-82.9260,-1.0,20.77,2 
COMPS,ioos:station:USF.COMPS:C10:1,2017-03-06T22:35:00Z,27.1690,-82.9260,-1.0,20.79,2 
COMPS,ioos:station:USF.COMPS:C10:1,2017-03-06T23:05:00Z,27.1690,-82.9260,-1.0,20.64,2 
COMPS,ioos:station:USF.COMPS:C10:1,2017-03-06T23:35:00Z,27.1690,-82.9260,-1.0,20.53,2 
COMPS,ioos:station:USF.COMPS:C10:1,2017-03-07T01:05:00Z,27.1690,-82.9260,-1.0,20.37,2 
COMPS,ioos:station:USF.COMPS:C10:1,2017-03-07T01:35:00Z,27.1690,-82.9260,-1.0,20.34,2 
COMPS,ioos:station:USF.COMPS:C10:1,2017-03-07T02:05:00Z,27.1690,-82.9260,-1.0,20.3,2 
COMPS,ioos:station:USF.COMPS:C10:1,2017-03-07T02:35:00Z,27.1690,-82.9260,-1.0,20.3,2 
COMPS,ioos:station:USF.COMPS:C10:1,2017-03-07T03:05:00Z,27.1690,-82.9260,-1.0,20.27,2 
COMPS,ioos:station:USF.COMPS:C10:1,2017-03-07T03:35:00Z,27.1690,-82.9260,-1.0,20.25,2 
COMPS,ioos:station:USF.COMPS:C10:1,2017-03-07T05:05:00Z,27.1690,-82.9260,-1.0,20.21,2 
COMPS,ioos:station:USF.COMPS:C10:1,2017-03-07T05:35:00Z,27.1690,-82.9260,-1.0,20.21,2 
COMPS,ioos:station:USF.COMPS:C10:1,2017-03-07T06:05:00Z,27.1690,-82.9260,-1.0,20.2,2 
COMPS,ioos:station:USF.COMPS:C10:1,2017-03-07T06:35:00Z,27.1690,-82.9260,-1.0,20.2,2 
COMPS,ioos:station:USF.COMPS:C10:1,2017-03-07T07:05:00Z,27.1690,-82.9260,-1.0,20.19,2 
COMPS,ioos:station:USF.COMPS:C10:1,2017-03-07T07:35:00Z,27.1690,-82.9260,-1.0,20.18,2 
COMPS,ioos:station:USF.COMPS:C10:1,2017-03-07T08:05:00Z,27.1690,-82.9260,-1.0,20.18,2 
COMPS,ioos:station:USF.COMPS:C10:1,2017-03-07T08:35:00Z,27.1690,-82.9260,-1.0,20.17,2 
COMPS,ioos:station:USF.COMPS:C10:1,2017-03-07T10:05:00Z,27.1690,-82.9260,-1.0,20.13,2 
COMPS,ioos:station:USF.COMPS:C10:1,2017-03-07T10:35:00Z,27.1690,-82.9260,-1.0,20.13,2 
COMPS,ioos:station:USF.COMPS:C10:1,2017-03-07T13:05:00Z,27.1690,-82.9260,-1.0,20.1,2 
COMPS,ioos:station:USF.COMPS:C10:1,2017-03-07T13:35:00Z,27.1690,-82.9260,-1.0,20.1,2 
COMPS,ioos:station:USF.COMPS:C10:1,2017-03-07T14:05:00Z,27.1690,-82.9260,-1.0,20.11,2 
COMPS,ioos:station:USF.COMPS:C10:1,2017-03-07T14:35:00Z,27.1690,-82.9260,-1.0,20.11,2 
COMPS,ioos:station:USF.COMPS:C10:1,2017-03-07T15:05:00Z,27.1690,-82.9260,-1.0,20.12,2 
COMPS,ioos:station:USF.COMPS:C10:1,2017-03-07T15:35:00Z,27.1690,-82.9260,-1.0,20.13,2 
COMPS,ioos:station:USF.COMPS:C10:1,2017-03-07T17:05:00Z,27.1690,-82.9260,-1.0,20.2,2 
COMPS,ioos:station:USF.COMPS:C10:1,2017-03-07T17:35:00Z,27.1690,-82.9260,-1.0,20.21,2 
COMPS,ioos:station:USF.COMPS:C10:1,2017-03-07T18:05:00Z,27.1690,-82.9260,-1.0,20.28,2 
COMPS,ioos:station:USF.COMPS:C10:1,2017-03-07T18:35:00Z,27.1690,-82.9260,-1.0,20.36,2 
COMPS,ioos:station:USF.COMPS:C10:1,2017-03-07T19:05:00Z,27.1690,-82.9260,-1.0,20.47,2 
COMPS,ioos:station:USF.COMPS:C10:1,2017-03-07T19:35:00Z,27.1690,-82.9260,-1.0,20.5,2 
COMPS,ioos:station:USF.COMPS:C10:1,2017-03-07T20:05:00Z,27.1690,-82.9260,-1.0,20.68,2 
COMPS,ioos:station:USF.COMPS:C10:1,2017-03-07T20:35:00Z,27.1690,-82.9260,-1.0,20.84,2 
COMPS,ioos:station:USF.COMPS:C10:1,2017-03-07T21:05:00Z,27.1690,-82.9260,-1.0,20.77,2 
COMPS,ioos:station:USF.COMPS:C10:1,2017-03-07T21:35:00Z,27.1690,-82.9260,-1.0,20.82,2 
COMPS,ioos:station:USF.COMPS:C10:1,2017-03-07T22:05:00Z,27.1690,-82.9260,-1.0,20.65,2 
COMPS,ioos:station:USF.COMPS:C10:1,2017-03-07T22:35:00Z,27.1690,-82.9260,-1.0,20.78,2 
COMPS,ioos:station:USF.COMPS:C10:1,2017-03-07T23:05:00Z,27.1690,-82.9260,-1.0,20.79,2 
COMPS,ioos:station:USF.COMPS:C10:1,2017-03-07T23:35:00Z,27.1690,-82.9260,-1.0,20.75,2 
COMPS,ioos:station:USF.COMPS:C10:1,2017-03-08T00:05:00Z,27.1690,-82.9260,-1.0,20.74,2 
COMPS,ioos:station:USF.COMPS:C10:1,2017-03-08T00:35:00Z,27.1690,-82.9260,-1.0,20.69,2 
COMPS,ioos:station:USF.COMPS:C10:1,2017-03-08T01:05:00Z,27.1690,-82.9260,-1.0,20.65,2 
COMPS,ioos:station:USF.COMPS:C10:1,2017-03-08T01:35:00Z,27.1690,-82.9260,-1.0,20.63,2 
COMPS,ioos:station:USF.COMPS:C10:1,2017-03-08T06:05:00Z,27.1690,-82.9260,-1.0,20.48,2 
COMPS,ioos:station:USF.COMPS:C10:1,2017-03-08T06:35:00Z,27.1690,-82.9260,-1.0,20.47,2 
COMPS,ioos:station:USF.COMPS:C10:1,2017-03-08T07:05:00Z,27.1690,-82.9260,-1.0,20.45,2 
COMPS,ioos:station:USF.COMPS:C10:1,2017-03-08T07:35:00Z,27.1690,-82.9260,-1.0,20.45,2 
COMPS,ioos:station:USF.COMPS:C10:1,2017-03-08T08:05:00Z,27.1690,-82.9260,-1.0,20.42,2 
COMPS,ioos:station:USF.COMPS:C10:1,2017-03-08T08:35:00Z,27.1690,-82.9260,-1.0,20.41,2 
COMPS,ioos:station:USF.COMPS:C10:1,2017-03-08T09:05:00Z,27.1690,-82.9260,-1.0,20.4,2 
COMPS,ioos:station:USF.COMPS:C10:1,2017-03-08T09:35:00Z,27.1690,-82.9260,-1.0,20.4,2 
COMPS,ioos:station:USF.COMPS:C10:1,2017-03-08T12:05:00Z,27.1690,-82.9260,-1.0,20.35,2 
COMPS,ioos:station:USF.COMPS:C10:1,2017-03-08T12:35:00Z,27.1690,-82.9260,-1.0,20.34,2 
COMPS,ioos:station:USF.COMPS:C10:1,2017-03-08T13:05:00Z,27.1690,-82.9260,-1.0,20.34,2 
COMPS,ioos:station:USF.COMPS:C10:1,2017-03-08T13:35:00Z,27.1690,-82.9260,-1.0,20.35,2 
COMPS,ioos:station:USF.COMPS:C10:1,2017-03-08T15:05:00Z,27.1690,-82.9260,-1.0,20.4,2 
COMPS,ioos:station:USF.COMPS:C10:1,2017-03-08T15:35:00Z,27.1690,-82.9260,-1.0,20.43,2 
COMPS,ioos:station:USF.COMPS:C10:1,2017-03-08T16:05:00Z,27.1690,-82.9260,-1.0,20.44,2 
COMPS,ioos:station:USF.COMPS:C10:1,2017-03-08T16:35:00Z,27.1690,-82.9260,-1.0,20.52,2 
COMPS,ioos:station:USF.COMPS:C10:1,2017-03-08T17:05:00Z,27.1690,-82.9260,-1.0,20.58,2 
COMPS,ioos:station:USF.COMPS:C10:1,2017-03-08T17:35:00Z,27.1690,-82.9260,-1.0,20.65,2 
COMPS,ioos:station:USF.COMPS:C10:1,2017-03-08T18:05:00Z,27.1690,-82.9260,-1.0,20.72,2 
COMPS,ioos:station:USF.COMPS:C10:1,2017-03-08T18:35:00Z,27.1690,-82.9260,-1.0,20.77,2 
COMPS,ioos:station:USF.COMPS:C10:1,2017-03-08T19:05:00Z,27.1690,-82.9260,-1.0,20.84,2 
COMPS,ioos:station:USF.COMPS:C10:1,2017-03-08T19:35:00Z,27.1690,-82.9260,-1.0,20.92,2 
COMPS,ioos:station:USF.COMPS:C10:1,2017-03-08T20:05:00Z,27.1690,-82.9260,-1.0,21.1,2 
COMPS,ioos:station:USF.COMPS:C10:1,2017-03-08T20:35:00Z,27.1690,-82.9260,-1.0,21.16,2 
COMPS,ioos:station:USF.COMPS:C10:1,2017-03-08T21:05:00Z,27.1690,-82.9260,-1.0,21.2,2 
COMPS,ioos:station:USF.COMPS:C10:1,2017-03-08T21:35:00Z,27.1690,-82.9260,-1.0,21.25,2 
COMPS,ioos:station:USF.COMPS:C10:1,2017-03-08T22:05:00Z,27.1690,-82.9260,-1.0,21.23,2 
COMPS,ioos:station:USF.COMPS:C10:1,2017-03-08T22:35:00Z,27.1690,-82.9260,-1.0,21.22,2 
COMPS,ioos:station:USF.COMPS:C10:1,2017-03-08T23:05:00Z,27.1690,-82.9260,-1.0,21.2,2 
COMPS,ioos:station:USF.COMPS:C10:1,2017-03-08T23:35:00Z,27.1690,-82.9260,-1.0,21.11,2 
COMPS,ioos:station:USF.COMPS:C10:1,2017-03-09T00:05:00Z,27.1690,-82.9260,-1.0,21.05,2 
COMPS,ioos:station:USF.COMPS:C10:1,2017-03-09T00:35:00Z,27.1690,-82.9260,-1.0,21.04,2 
COMPS,ioos:station:USF.COMPS:C10:1,2017-03-09T01:05:00Z,27.1690,-82.9260,-1.0,21.0,2 
COMPS,ioos:station:USF.COMPS:C10:1,2017-03-09T01:35:00Z,27.1690,-82.9260,-1.0,20.95,2 
COMPS,ioos:station:USF.COMPS:C10:1,2017-03-09T02:05:00Z,27.1690,-82.9260,-1.0,20.91,2 
COMPS,ioos:station:USF.COMPS:C10:1,2017-03-09T02:35:00Z,27.1690,-82.9260,-1.0,20.87,2 
COMPS,ioos:station:USF.COMPS:C10:1,2017-03-09T03:05:00Z,27.1690,-82.9260,-1.0,20.8,2 
COMPS,ioos:station:USF.COMPS:C10:1,2017-03-09T03:35:00Z,27.1690,-82.9260,-1.0,20.76,2 
COMPS,ioos:station:USF.COMPS:C10:1,2017-03-09T06:05:00Z,27.1690,-82.9260,-1.0,20.58,2 
COMPS,ioos:station:USF.COMPS:C10:1,2017-03-09T06:35:00Z,27.1690,-82.9260,-1.0,20.58,2 
COMPS,ioos:station:USF.COMPS:C10:1,2017-03-09T07:05:00Z,27.1690,-82.9260,-1.0,20.55,2 
COMPS,ioos:station:USF.COMPS:C10:1,2017-03-09T07:35:00Z,27.1690,-82.9260,-1.0,20.56,2 
COMPS,ioos:station:USF.COMPS:C10:1,2017-03-09T08:05:00Z,27.1690,-82.9260,-1.0,20.52,2 
COMPS,ioos:station:USF.COMPS:C10:1,2017-03-09T08:35:00Z,27.1690,-82.9260,-1.0,20.53,2 
COMPS,ioos:station:USF.COMPS:C10:1,2017-03-09T09:05:00Z,27.1690,-82.9260,-1.0,20.52,2 
COMPS,ioos:station:USF.COMPS:C10:1,2017-03-09T09:35:00Z,27.1690,-82.9260,-1.0,20.53,2 
COMPS,ioos:station:USF.COMPS:C10:1,2017-03-09T10:05:00Z,27.1690,-82.9260,-1.0,20.53,2 
COMPS,ioos:station:USF.COMPS:C10:1,2017-03-09T10:35:00Z,27.1690,-82.9260,-1.0,20.52,2 
COMPS,ioos:station:USF.COMPS:C10:1,2017-03-09T11:05:00Z,27.1690,-82.9260,-1.0,20.52,2 
COMPS,ioos:station:USF.COMPS:C10:1,2017-03-09T11:35:00Z,27.1690,-82.9260,-1.0,20.51,2 
COMPS,ioos:station:USF.COMPS:C10:1,2017-03-09T12:05:00Z,27.1690,-82.9260,-1.0,20.51,2 
COMPS,ioos:station:USF.COMPS:C10:1,2017-03-09T12:35:00Z,27.1690,-82.9260,-1.0,20.51,2 
COMPS,ioos:station:USF.COMPS:C10:1,2017-03-09T14:05:00Z,27.1690,-82.9260,-1.0,20.53,2 
COMPS,ioos:station:USF.COMPS:C10:1,2017-03-09T14:35:00Z,27.1690,-82.9260,-1.0,20.56,2 
COMPS,ioos:station:USF.COMPS:C10:1,2017-03-09T15:05:00Z,27.1690,-82.9260,-1.0,20.61,2 
COMPS,ioos:station:USF.COMPS:C10:1,2017-03-09T15:35:00Z,27.1690,-82.9260,-1.0,20.62,2 
COMPS,ioos:station:USF.COMPS:C10:1,2017-03-09T16:05:00Z,27.1690,-82.9260,-1.0,20.7,2 
COMPS,ioos:station:USF.COMPS:C10:1,2017-03-09T16:35:00Z,27.1690,-82.9260,-1.0,20.84,2 
COMPS,ioos:station:USF.COMPS:C10:1,2017-03-09T17:05:00Z,27.1690,-82.9260,-1.0,20.99,2 
COMPS,ioos:station:USF.COMPS:C10:1,2017-03-09T17:35:00Z,27.1690,-82.9260,-1.0,21.09,2 
COMPS,ioos:station:USF.COMPS:C10:1,2017-03-09T18:05:00Z,27.1690,-82.9260,-1.0,21.1,2 
COMPS,ioos:station:USF.COMPS:C10:1,2017-03-09T18:35:00Z,27.1690,-82.9260,-1.0,21.42,2 
COMPS,ioos:station:USF.COMPS:C10:1,2017-03-09T19:05:00Z,27.1690,-82.9260,-1.0,21.42,2 
COMPS,ioos:station:USF.COMPS:C10:1,2017-03-09T19:35:00Z,27.1690,-82.9260,-1.0,21.78,2 
COMPS,ioos:station:USF.COMPS:C10:1,2017-03-09T20:05:00Z,27.1690,-82.9260,-1.0,21.7,2 
COMPS,ioos:station:USF.COMPS:C10:1,2017-03-09T20:35:00Z,27.1690,-82.9260,-1.0,21.63,2 
COMPS,ioos:station:USF.COMPS:C10:1,2017-03-09T21:05:00Z,27.1690,-82.9260,-1.0,21.51,2 
COMPS,ioos:station:USF.COMPS:C10:1,2017-03-09T21:35:00Z,27.1690,-82.9260,-1.0,21.36,2 
COMPS,ioos:station:USF.COMPS:C10:1,2017-03-09T22:05:00Z,27.1690,-82.9260,-1.0,21.43,2 
COMPS,ioos:station:USF.COMPS:C10:1,2017-03-09T22:35:00Z,27.1690,-82.9260,-1.0,21.39,2 
COMPS,ioos:station:USF.COMPS:C10:1,2017-03-09T23:05:00Z,27.1690,-82.9260,-1.0,21.33,2 
COMPS,ioos:station:USF.COMPS:C10:1,2017-03-09T23:35:00Z,27.1690,-82.9260,-1.0,21.22,2 
COMPS,ioos:station:USF.COMPS:C10:1,2017-03-10T00:05:00Z,27.1690,-82.9260,-1.0,21.08,2 
COMPS,ioos:station:USF.COMPS:C10:1,2017-03-10T00:35:00Z,27.1690,-82.9260,-1.0,20.98,2 
COMPS,ioos:station:USF.COMPS:C10:1,2017-03-10T01:05:00Z,27.1690,-82.9260,-1.0,20.94,2 